Starlink 30074

operational
NORAD ID: 57508 Int'l Des: 2023-113 Owner: SPXS Country: US Constellation: starlink
LEOCIRCULAR

关于 Starlink 30074

正在加载描述...

实时位置

正在加载3D地球...

即将过境

高度历史

Altitude vs Time

uPlot chart will show altitude changes over time

两行轨道根数

1 57508U 23113P 25353.99063660 -.00000151 00000-0 38987-5 0 9990
2 57508 43.0047 90.1984 0001383 274.4251 85.6433 15.02531905131461
Epoch: Dec 19, 2025 • Age: 27 hours

当前状态

高度 559.5 km
速度 7.59 km/s
星下点 25.57°N, 21.32°W
发射日期 Aug 7, 2023
运行时间 2.3 years
类型 internet

技术详情

分类 Payload
质量 730.00 kg
干质量 700.00 kg
总质量 730.00 kg
长度 0.30 m
直径 4.10 m
跨度 29.00 m
形状 Box + pan
制造商 SPXS
平台类型 Starlink V2M
阶段状态 In Orbit
所有者/国家 SPXS/US

大型星座

Loading constellations...